Regional Weather Roundup
Issued by NWS

Home | Current Version | Previous Version | Graphics & Text | Print | Product List | Glossary On
Versions: 1 2 3 4 5 6 7 8 9 10 11 12 13 14 15 16 17 18 19 20 21 22 23 24 25 26 27
000
ASUS45 KBOU 121110
RWRCO

WEATHER ROUNDUP FOR COLORADO
NATIONAL WEATHER SERVICE DENVER/BOULDER CO
400 AM MST TUE DEC 12 2017

NOTE: "FAIR" INDICATES FEW OR NO CLOUDS BELOW 12000 FEET WITH NO
SIGNIFICANT WEATHER AND/OR OBSTRUCTIONS TO VISIBILITY.

COZ001>005-013-030-031-121200-
...NORTHWEST COLORADO...

CITY           SKY/WX    TMP DP  RH WIND       PRES   REMARKS
CRAIG          FAIR      10   5  80 CALM      30.56S
HAYDEN         FAIR      22  12  65 E10       30.56S WCI  11
MEEKER         FAIR      14   8  77 NE3       30.55S
RABBIT EARS PA FAIR      27  12  54 W8        30.57F WCI  18
STEAMBOAT SPGS FAIR      15  10  79 CALM      30.56S
WALDEN         FAIR       9   3  78 CALM      30.56S
$$

COZ006>008-011-121200-
...WEST CENTRAL VALLEYS...

CITY           SKY/WX    TMP DP  RH WIND       PRES   REMARKS
GRAND JUNCTION FAIR      25   5  42 CALM      30.53S
MONTROSE       FAIR      19   6  57 S9        30.57S WCI   8
EAGLE          FAIR      10   5  80 CALM      30.65S
RIFLE          FAIR      22   7  52 S3        30.57S
DELTA          FAIR      22   0  37 CALM      30.57S
NUCLA          FAIR      30   1  29 E5        30.55S WCI  25
$$

COZ017>023-064>068-121200-
...SOUTHWEST COLORADO...

CITY           SKY/WX    TMP DP  RH WIND       PRES   REMARKS
DURANGO        FAIR      12   0  58 E3        30.50R
CORTEZ         FAIR      11   0  61 E5        30.51S WCI   3
PAGOSA SPRINGS FAIR      21  -1  38 CALM      30.52S
TELLURIDE      FAIR      31   2  29 SE6       30.57F WCI  25
WOLF CREEK PAS FAIR      32  -8  18 W9        30.67F WCI  24
$$

COZ009-010-012-014-032>034-037-058>063-121200-
...CENTRAL COLORADO...

CITY           SKY/WX    TMP DP  RH WIND       PRES   REMARKS
ASPEN          FAIR      20  11  68 S8        30.56S WCI  10
BUENA VISTA    FAIR      27   8  44 W7        30.52S WCI  19
COPPER MTN     NOT AVBL
BERTHOUD PASS  FAIR      19   9  63 NW17G31   30.58S WCI   4
COTTONWOOD PAS FAIR      39   3  22 NW7       30.54S
GUNNISON       FAIR       8   2  76 CALM      30.63R
KREMMLING      FAIR       5   1  85 CALM      30.64S
LEADVILLE      FAIR      21   5  50 NE5       30.56S WCI  15
MONARCH PASS   FAIR      25   1  36 W24       30.71S WCI   9
SALIDA         FAIR      24   8  50 W6        30.60S WCI  17
SUNLIGHT       FAIR      30  12  47 CALM      30.65S
WILKERSON PASS FAIR      30   5  34 NW9G20    30.57S WCI  22
$$

COZ069>075-121200-
...SAN LUIS VALLEY/SANGRE DE CRISTO MOUNTAINS...

CITY           SKY/WX    TMP DP  RH WIND       PRES   REMARKS
ALAMOSA        FAIR      13   0  56 N5        30.52S WCI   5
DEL NORTE      FAIR      27  -1  28 NW6       30.53R WCI  21
LA VETA PASS   FAIR      28  -4  24 SW24        N/A  WCI  14
SAGUACHE       FAIR      21   3  45 CALM      30.53S
$$

COZ035-036-038>040-121200-
...NORTHERN COLORADO FRONT RANGE...

CITY           SKY/WX    TMP DP  RH WIND       PRES   REMARKS
DENVER INTL AP FAIR      30  10  43 S10       30.37F WCI  21
DMNS CITY PARK NOT AVBL
AURORA         CLEAR     33   8  35 S13       30.38F WCI  24
FRONT RANGE AP FAIR      29  11  48 S9        30.37F WCI  20
ERIE MUNI ARPT FAIR      24  12  61 CALM      30.43F
BOULDER MUN AP FAIR      32  14  47 SW3       30.37F
CENTENNIAL     FAIR      28  10  46 SE7       30.38F WCI  21
BROOMFIELD     FAIR      32   9  37 SW5       30.37F WCI  27
FORT COLLINS   FAIR      30  15  53 NE3       30.37F
LONGMONT       FAIR      27  13  56 CALM      30.39F
$$

COZ041-046-047-076>085-087-088-121200-
...PIKES PEAK/PALMER DIVIDE AND SOUTHERN FOOTHILLS...

CITY           SKY/WX    TMP DP  RH WIND       PRES   REMARKS
COLO. SPRINGS  FAIR      25   4  40 NE5       30.44F WCI  19
A. F. ACADEMY  FAIR      19   4  52 N13       30.43F WCI   5
SCHRIEVER AFB  FAIR      31   3  31 W3        30.44F
CHEYENNE MTN   FAIR      36   1  23 CALM      30.38F
ELLICOTT         N/A    N/A N/A N/A CALM      30.42F
FALCON         FAIR      28   2  33 W8        30.44F WCI  20
FORT CARSON    FAIR      27   4  36 NW9       30.42F WCI  18
LIMON          FAIR      23   8  52 CALM      30.41F
MONUMENT HILL  FAIR      28   5  37 SW9       30.43F WCI  20
CANON CITY     FAIR      34   5  29 W7        30.42F WCI  28
WALSENBURG     FAIR      27   3  36 CALM      30.42F
TRINIDAD       FAIR      28   7  41 SW15      30.44F WCI  16
$$

COZ042>045-048>051-090-091-121200-
...NORTHEAST COLORADO...

CITY           SKY/WX    TMP DP  RH WIND       PRES   REMARKS
GREELEY ARPT   FAIR      16   7  67 CALM      30.39F HAZE
AKRON          FAIR      28   8  43 SW10      30.36F WCI  19
BURLINGTON     FAIR      20   9  62 W10       30.38F WCI   9
WRAY           FAIR      18  10  73 W6        30.37F WCI   9
YUMA           FAIR      21  10  63 W9        30.36F WCI  11
STERLING       FAIR      19  10  68 S8        30.37F WCI   9
HOLYOKE        FAIR      19  10  68 W6        30.35F WCI  11
FORT MORGAN    FAIR      17   6  59 W9        30.38F WCI   6
$$

COZ086-089-092>099-121200-
...SOUTHEAST COLORADO...

CITY           SKY/WX    TMP DP  RH WIND       PRES   REMARKS
PUEBLO         FAIR      15   3  59 NW5       30.44F WCI   8
LA JUNTA       FAIR      24   6  46 W14       30.43F WCI  12
LAMAR          FAIR      24   9  52 W8        30.42F WCI  15
SPRINGFIELD      N/A     22   8  55 S3        30.42F
$$




USA.gov is the U.S. government's official web portal to all federal, state and local government web resources and services.